Location: Buckeye Ditch
(40.9104°N, 122.9517°W)
Time: 11:45:42
(UTC+00:00)

Tiros 1 despin weight - Pass Details

Date: 20 May 2025
Orbit: 563 x 601 km, 48.2° (Epoch: 22 June)

Event Time Altitude Azimuth Distance (km) Brightness Sun altitude
Rises 09:47:09 0° 215° (SW) 2,789 - -24.8°
Reaches altitude 10° 09:49:31 10° 207° (SSW) 1,900 - -24.6°
Maximum altitude 09:53:31 36° 140° (SE) 943 - -24.3°
Exits shadow 09:54:24 32° 113° (ESE) 1,014 ? -24.2°
Drops below altitude 10° 09:57:34 10° 74° (ENE) 1,929 ? -24.0°
Sets 10:00:00 0° 66° (ENE) 2,839 ? -23.7°
